Flag Weather past 2 weeks in Tours, France

Now
52 °F

Low clouds.


Feels Like: 48 °F
Forecast: 47 / 57 °F
Wind: 12 mph from Northeast

Location: Tours Airport

Current Time: Nov 24, 2014 at 10:56:04 PM

Latest Report: Nov 24, 2014 at 10:00 PM


Visibility: 4 mi

Pressure: 30.15 "Hg

Humidity: 94%

Dew point: 50 °F

Location of ToursLocation

Historic Weather in Tours — Graph

°F

Tours temperature yesterday

Maximum temperature yesterday: 64 °F (at 2:00 PM)
Minimum temperature yesterday: 48 °F (at 4:00 AM)
Average temperature yesterday: 55 °F

Past Weeks' High & Low Weather Summary

 TemperatureHumidityPressure
High64 °F (Nov 23, 2:00 PM)100% (Nov 9, 11:00 PM)30.18 "Hg (Nov 9, 11:00 PM)
Low37 °F (Nov 10, 5:30 AM)59% (Nov 12, 3:30 PM)29.42 "Hg (Nov 16, 8:00 AM)
Average50 °F89%29.79 "Hg
* Reported Nov 9 9:00 PM — Nov 24 9:30 PM, Tours, Weather by CustomWeather, © 2014

Note: Actual official high and low records may vary slightly from our data, if they occured in-between our weather recording intervals... More about our weather records

Advertising

Tours weather history for previous 24 hours

 ConditionsComfort  
Time TempWeatherWind HumidityBarometerVisibility
9:30 PM
Nov 24
52 °FDrizzle. Low clouds.9 mph94%30.15 "Hg4 mi
9:00 PM52 °FDrizzle. Low clouds.8 mph94%30.15 "Hg4 mi
8:30 PM52 °FLow clouds.9 mph94%30.15 "Hg5 mi
8:00 PM52 °FLow clouds.9 mph88%30.15 "Hg5 mi
7:30 PM52 °FDrizzle. Low clouds.9 mph88%30.15 "HgN/A
7:00 PM52 °FDrizzle. Low clouds.9 mph94%30.15 "HgN/A
6:30 PM52 °FLow clouds.10 mph94%30.15 "Hg5 mi
6:00 PM52 °FDrizzle. Low clouds.10 mph94%30.15 "Hg5 mi
5:30 PM52 °FDrizzle. Low clouds.8 mph94%30.15 "HgN/A
5:00 PM52 °FDrizzle. Low clouds.10 mph94%30.15 "HgN/A
4:30 PM52 °FLow clouds.10 mph94%30.15 "Hg6 mi
4:00 PM52 °FLow clouds.9 mph94%30.15 "HgN/A
3:30 PM52 °FLow clouds.12 mph94%30.15 "Hg6 mi
3:00 PM52 °FLow clouds.12 mph94%30.15 "Hg6 mi
2:30 PM52 °FLow clouds.12 mph94%30.15 "Hg5 mi
2:00 PM52 °FLow clouds.12 mph94%30.15 "Hg5 mi
1:30 PM52 °FLow clouds.13 mph94%30.15 "Hg4 mi
1:00 PM52 °FLow clouds.13 mph94%30.15 "Hg5 mi
12:30 PM52 °FLow clouds.13 mph94%30.15 "Hg5 mi
12:00 PM52 °FLow clouds.12 mph94%30.18 "Hg5 mi
11:30 AM52 °FLow clouds.13 mph94%30.18 "Hg4 mi
11:00 AM52 °FLow clouds.14 mph88%30.18 "Hg4 mi
10:30 AM52 °FLow clouds.13 mph88%30.18 "Hg4 mi
10:00 AM50 °FLow clouds.12 mph94%30.15 "Hg6 mi
9:30 AM50 °FLow clouds.10 mph94%30.15 "HgN/A
9:00 AM50 °FLow clouds.10 mph94%30.15 "HgN/A
8:30 AM50 °FLow clouds.10 mph94%30.15 "HgN/A
8:00 AM50 °FLow clouds.10 mph94%30.15 "HgN/A
7:30 AM50 °FLow clouds.8 mph94%30.12 "HgN/A
6:30 AM52 °FMostly cloudy.10 mph88%30.12 "HgN/A
6:00 AM52 °FMostly cloudy.8 mph88%30.12 "HgN/A
5:30 AM52 °FMostly cloudy.9 mph88%30.09 "HgN/A
5:00 AM52 °FLow clouds.8 mph94%30.09 "HgN/A
4:30 AM52 °FLow clouds.8 mph94%30.09 "HgN/A
4:00 AM52 °FMostly cloudy.8 mph94%30.09 "HgN/A
3:30 AM52 °FMostly cloudy.7 mph94%30.09 "HgN/A
3:00 AM54 °FLow clouds.6 mph88%30.09 "HgN/A
2:30 AM54 °FMostly cloudy.9 mph88%30.07 "HgN/A
2:00 AM54 °FLow clouds.6 mph94%30.09 "Hg5 mi
1:30 AM54 °FMostly cloudy.6 mph88%30.07 "Hg6 mi
12:30 AM54 °FPassing clouds.7 mph88%30.07 "HgN/A
11:53 PM
Nov 23
54 °FPassing clouds.5 mph88%30.07 "HgN/A
11:30 PM54 °FClear.7 mph94%30.07 "Hg10 mi
11:00 PM54 °FPassing clouds.6 mph94%30.04 "HgN/A
10:30 PM55 °FPassing clouds.5 mph94%30.04 "HgN/A
10:00 PM55 °FClear.6 mph94%30.04 "Hg10 mi
Weather by CustomWeather, © 2014

See weather overviewHow to use our weather pages